Torna al catalogo

SL-8 DEB

AttivoLEO
NORAD 39696·DEBRIS·🇷🇺 Russia

Lanciato Feb 12, 1991 da Plesetsk Cosmodrome

Loading…

Prossimi Passaggi (prossime 24 ore)

TLE

ObsoletoSource: Space-Track

Epoca: Aug 20, 2026, 07:13 UTC

1 39696U 91009DK  26232.30136134  .00000052  00000-0  58742-3 0  9994
2 39696  74.0457  98.1124 0179357 151.9826 209.1006 12.22153488550331

Traccia SL-8 DEB in tempo reale con AllMySat

Download on the App Store